| time (UTC) | temp F | wind direction | speed MPH | gust MPH | rain 1hr in | rain 24hr in | rain mn in | humidity % | barometer mb |
| 20260506044537 | 68 | 0 | 0.0 | 1.0 | 0.00 | 0.00 | 0.00 | 43 | 1015.0 |
| 20260506044025 | 67 | 113 | 0.0 | 1.0 | 0.00 | 0.00 | 0.00 | 43 | 1015.0 |
| 20260506043525 | 67 | 0 | 0.0 | 1.0 | 0.00 | 0.00 | 0.00 | 43 | 1014.9 |
| 20260506043036 | 67 | 113 | 0.0 | 1.0 | 0.00 | 0.00 | 0.00 | 44 | 1014.7 |
| 20260506042524 | 66 | 0 | 0.0 | 1.0 | 0.00 | 0.00 | 0.00 | 45 | 1014.6 |
| 20260506042022 | 66 | 114 | 0.0 | 0.0 | 0.00 | 0.00 | 0.00 | 46 | 1014.8 |
| 20260506041540 | 65 | 0 | 0.0 | 1.0 | 0.00 | 0.00 | 0.00 | 47 | 1014.8 |
| 20260506041022 | 65 | 0 | 0.0 | 1.0 | 0.00 | 0.00 | 0.00 | 47 | 1014.9 |
| 20260506040521 | 65 | 0 | 0.0 | 0.0 | 0.00 | 0.00 | 0.00 | 47 | 1014.9 |
| 20260506040042 | 65 | 0 | 0.0 | 1.0 | 0.00 | 0.00 | 0.00 | 47 | 1014.8 |
| 20260506035523 | 65 | 0 | 0.0 | 1.0 | 0.00 | 0.00 | 0.00 | 47 | 1014.8 |
| 20260506035023 | 65 | 0 | 0.0 | 1.0 | 0.00 | 0.00 | 0.00 | 46 | 1014.9 |
| 20260506034538 | 66 | 0 | 0.0 | 1.0 | 0.00 | 0.00 | 0.00 | 46 | 1015.1 |
| 20260506034022 | 66 | 0 | 0.0 | 0.0 | 0.00 | 0.00 | 0.00 | 46 | 1015.0 |
| 20260506033522 | 66 | 0 | 0.0 | 1.0 | 0.00 | 0.00 | 0.00 | 46 | 1014.9 |
| 20260506033040 | 66 | 0 | 0.0 | 1.0 | 0.00 | 0.00 | 0.00 | 46 | 1014.7 |
| 20260506032522 | 66 | 0 | 0.0 | 1.0 | 0.00 | 0.00 | 0.00 | 45 | 1014.7 |
| 20260506032023 | 67 | 0 | 0.0 | 1.0 | 0.00 | 0.00 | 0.00 | 45 | 1014.8 |
| 20260506031542 | 67 | 0 | 0.0 | 1.0 | 0.00 | 0.00 | 0.00 | 45 | 1014.6 |
| 20260506031024 | 67 | 115 | 0.0 | 1.0 | 0.00 | 0.00 | 0.00 | 45 | 1014.8 |
| 20260506030525 | 67 | 124 | 0.0 | 1.0 | 0.00 | 0.00 | 0.00 | 45 | 1014.9 |
| 20260506030040 | 67 | 124 | 0.0 | 1.0 | 0.00 | 0.00 | 0.00 | 44 | 1014.9 |
| 20260506025523 | 67 | 0 | 0.0 | 1.0 | 0.00 | 0.00 | 0.00 | 44 | 1014.9 |
| 20260506025023 | 67 | 124 | 0.0 | 1.0 | 0.00 | 0.00 | 0.00 | 44 | 1014.9 |
| 20260506024538 | 67 | 122 | 0.0 | 1.0 | 0.00 | 0.00 | 0.00 | 44 | 1014.9 |
| 20260506024025 | 68 | 123 | 0.0 | 1.0 | 0.00 | 0.00 | 0.00 | 45 | 1015.0 |
| 20260506023524 | 68 | 0 | 0.0 | 0.0 | 0.00 | 0.00 | 0.00 | 44 | 1015.1 |
| 20260506023049 | 68 | 0 | 0.0 | 1.0 | 0.00 | 0.00 | 0.00 | 44 | 1014.9 |
| 20260506022523 | 68 | 0 | 0.0 | 1.0 | 0.00 | 0.00 | 0.00 | 44 | 1014.9 |
| 20260506022023 | 69 | 0 | 0.0 | 1.0 | 0.00 | 0.00 | 0.00 | 43 | 1014.9 |
| 20260506021550 | 69 | 0 | 0.0 | 1.0 | 0.00 | 0.00 | 0.00 | 43 | 1014.6 |
| 20260506021023 | 69 | 0 | 0.0 | 2.0 | 0.00 | 0.00 | 0.00 | 43 | 1014.5 |
| 20260506020522 | 69 | 96 | 0.0 | 3.0 | 0.00 | 0.00 | 0.00 | 42 | 1014.4 |
| 20260506020040 | 70 | 96 | 0.0 | 3.0 | 0.00 | 0.00 | 0.00 | 41 | 1014.3 |
| 20260506015524 | 70 | 0 | 0.0 | 2.0 | 0.00 | 0.00 | 0.00 | 40 | 1014.2 |
| 20260506015026 | 70 | 0 | 0.0 | 3.0 | 0.00 | 0.00 | 0.00 | 40 | 1014.1 |
| 20260506014540 | 71 | 0 | 0.0 | 3.0 | 0.00 | 0.00 | 0.00 | 39 | 1014.2 |
| 20260506014023 | 71 | 108 | 1.0 | 3.0 | 0.00 | 0.00 | 0.00 | 39 | 1014.1 |
| 20260506013523 | 70 | 94 | 0.0 | 3.0 | 0.00 | 0.00 | 0.00 | 39 | 1014.3 |
| 20260506013038 | 70 | 96 | 0.0 | 2.0 | 0.00 | 0.00 | 0.00 | 40 | 1014.4 |
| 20260506012524 | 70 | 0 | 0.0 | 2.0 | 0.00 | 0.00 | 0.00 | 40 | 1014.5 |
| 20260506012024 | 70 | 116 | 0.0 | 2.0 | 0.00 | 0.00 | 0.00 | 41 | 1014.3 |
| 20260506011542 | 70 | 0 | 0.0 | 1.0 | 0.00 | 0.00 | 0.00 | 41 | 1014.5 |
| 20260506011024 | 70 | 0 | 0.0 | 1.0 | 0.00 | 0.00 | 0.00 | 41 | 1014.6 |
| 20260506010526 | 70 | 0 | 0.0 | 1.0 | 0.00 | 0.00 | 0.00 | 41 | 1014.7 |
| 20260506010050 | 71 | 0 | 0.0 | 1.0 | 0.00 | 0.00 | 0.00 | 41 | 1014.8 |
| 20260506005524 | 71 | 0 | 0.0 | 0.0 | 0.00 | 0.00 | 0.00 | 40 | 1014.7 |
| 20260506005023 | 71 | 0 | 0.0 | 1.0 | 0.00 | 0.00 | 0.00 | 40 | 1014.6 |
| 20260506004546 | 72 | 0 | 0.0 | 1.0 | 0.00 | 0.00 | 0.00 | 38 | 1014.4 |
| 20260506004023 | 72 | 116 | 0.0 | 1.0 | 0.00 | 0.00 | 0.00 | 37 | 1014.3 |
| 20260506003523 | 72 | 160 | 0.0 | 1.0 | 0.00 | 0.00 | 0.00 | 37 | 1014.3 |
| 20260506003038 | 72 | 0 | 0.0 | 1.0 | 0.00 | 0.00 | 0.00 | 36 | 1014.3 |
| 20260506002523 | 72 | 160 | 0.0 | 1.0 | 0.00 | 0.00 | 0.00 | 36 | 1014.4 |
| 20260506002024 | 73 | 0 | 0.0 | 0.0 | 0.00 | 0.00 | 0.00 | 35 | 1014.4 |
| 20260506001543 | 73 | 0 | 0.0 | 2.0 | 0.00 | 0.00 | 0.00 | 35 | 1014.5 |
| 20260506001023 | 73 | 0 | 0.0 | 2.0 | 0.00 | 0.00 | 0.00 | 34 | 1014.3 |
| 20260506000523 | 74 | 0 | 0.0 | 0.0 | 0.00 | 0.00 | 0.00 | 33 | 1014.4 |
| 20260506000035 | 74 | 0 | 0.0 | 0.0 | 0.00 | 0.00 | 0.00 | 33 | 1014.5 |
| 20260505235526 | 74 | 0 | 0.0 | 0.0 | 0.00 | 0.00 | 0.00 | 32 | 1014.4 |
| 20260505235027 | 74 | 0 | 0.0 | 0.0 | 0.00 | 0.00 | 0.00 | 32 | 1014.4 |
| 20260505234600 | 74 | 0 | 0.0 | 0.0 | 0.00 | 0.00 | 0.00 | 32 | 1014.4 |
| 20260505234023 | 75 | 0 | 0.0 | 2.0 | 0.00 | 0.00 | 0.00 | 32 | 1014.4 |
| 20260505233525 | 75 | 160 | 0.0 | 2.0 | 0.00 | 0.00 | 0.00 | 31 | 1014.3 |
| 20260505233041 | 75 | 0 | 0.0 | 2.0 | 0.00 | 0.00 | 0.00 | 31 | 1014.3 |
| 20260505232523 | 75 | 110 | 0.0 | 2.0 | 0.00 | 0.00 | 0.00 | 30 | 1014.4 |
| 20260505232023 | 75 | 110 | 0.0 | 2.0 | 0.00 | 0.00 | 0.00 | 30 | 1014.4 |
| 20260505231538 | 75 | 126 | 0.0 | 2.0 | 0.00 | 0.00 | 0.00 | 30 | 1014.3 |
| 20260505231024 | 76 | 0 | 0.0 | 3.0 | 0.00 | 0.00 | 0.00 | 29 | 1014.3 |
| 20260505230524 | 76 | 136 | 0.0 | 3.0 | 0.00 | 0.00 | 0.00 | 28 | 1014.2 |
| 20260505230036 | 76 | 134 | 1.0 | 3.0 | 0.00 | 0.00 | 0.00 | 27 | 1014.2 |
| 20260505225525 | 77 | 109 | 0.0 | 3.0 | 0.00 | 0.00 | 0.00 | 27 | 1014.2 |
| 20260505225025 | 77 | 144 | 0.0 | 3.0 | 0.00 | 0.00 | 0.00 | 26 | 1014.2 |
| 20260505224540 | 77 | 144 | 0.0 | 7.0 | 0.00 | 0.00 | 0.00 | 26 | 1014.2 |
| 20260505224025 | 78 | 97 | 2.0 | 7.0 | 0.00 | 0.00 | 0.00 | 25 | 1014.1 |
| 20260505223528 | 78 | 198 | 2.0 | 6.0 | 0.00 | 0.00 | 0.00 | 25 | 1014.2 |
| 20260505223040 | 79 | 253 | 0.0 | 6.0 | 0.00 | 0.00 | 0.00 | 27 | 1014.3 |
| 20260505222524 | 79 | 133 | 0.0 | 6.0 | 0.00 | 0.00 | 0.00 | 25 | 1014.4 |
| 20260505222025 | 79 | 141 | 0.0 | 6.0 | 0.00 | 0.00 | 0.00 | 26 | 1014.2 |
| 20260505221539 | 79 | 214 | 0.0 | 9.0 | 0.00 | 0.00 | 0.00 | 25 | 1014.1 |
| 20260505221029 | 80 | 101 | 2.0 | 9.0 | 0.00 | 0.00 | 0.00 | 24 | 1014.0 |
| 20260505220525 | 81 | 124 | 1.0 | 5.0 | 0.00 | 0.00 | 0.00 | 23 | 1014.1 |
| 20260505220041 | 81 | 132 | 1.0 | 5.0 | 0.00 | 0.00 | 0.00 | 22 | 1014.2 |
| 20260505215524 | 81 | 124 | 0.0 | 6.0 | 0.00 | 0.00 | 0.00 | 23 | 1014.3 |
| 20260505215024 | 80 | 136 | 3.0 | 6.0 | 0.00 | 0.00 | 0.00 | 22 | 1014.2 |
| 20260505214600 | 81 | 98 | 2.0 | 5.0 | 0.00 | 0.00 | 0.00 | 21 | 1014.1 |
| 20260505214025 | 80 | 16 | 1.0 | 3.0 | 0.00 | 0.00 | 0.00 | 23 | 1014.2 |
| 20260505213524 | 80 | 317 | 0.0 | 3.0 | 0.00 | 0.00 | 0.00 | 23 | 1014.3 |
| 20260505213051 | 79 | 300 | 0.0 | 9.0 | 0.00 | 0.00 | 0.00 | 24 | 1014.2 |
| 20260505212529 | 78 | 109 | 1.0 | 13.0 | 0.00 | 0.00 | 0.00 | 24 | 1014.2 |
| 20260505212025 | 78 | 219 | 4.0 | 13.0 | 0.00 | 0.00 | 0.00 | 25 | 1014.1 |
| 20260505211537 | 79 | 115 | 6.0 | 13.0 | 0.00 | 0.00 | 0.00 | 24 | 1014.3 |
| 20260505211028 | 79 | 158 | 0.0 | 4.0 | 0.00 | 0.00 | 0.00 | 23 | 1014.2 |
| 20260505210526 | 80 | 280 | 0.0 | 4.0 | 0.00 | 0.00 | 0.00 | 24 | 1014.3 |
| 20260505210037 | 80 | 122 | 1.0 | 4.0 | 0.00 | 0.00 | 0.00 | 23 | 1014.4 |
| 20260505205524 | 80 | 132 | 1.0 | 4.0 | 0.00 | 0.00 | 0.00 | 22 | 1014.4 |
| 20260505205024 | 80 | 125 | 1.0 | 6.0 | 0.00 | 0.00 | 0.00 | 22 | 1014.4 |
| 20260505204542 | 80 | 263 | 1.0 | 6.0 | 0.00 | 0.00 | 0.00 | 22 | 1014.4 |
| 20260505204024 | 80 | 135 | 2.0 | 6.0 | 0.00 | 0.00 | 0.00 | 21 | 1014.5 |
| 20260505203524 | 81 | 180 | 1.0 | 8.0 | 0.00 | 0.00 | 0.00 | 22 | 1014.6 |
| 20260505203048 | 81 | 141 | 3.0 | 10.0 | 0.00 | 0.00 | 0.00 | 22 | 1014.6 |
| 20260505202525 | 80 | 118 | 2.0 | 10.0 | 0.00 | 0.00 | 0.00 | 21 | 1014.6 |
| 20260505202024 | 80 | 132 | 2.0 | 8.0 | 0.00 | 0.00 | 0.00 | 23 | 1014.6 |
| 20260505201542 | 80 | 98 | 1.0 | 8.0 | 0.00 | 0.00 | 0.00 | 25 | 1014.7 |
| 20260505201025 | 81 | 138 | 2.0 | 8.0 | 0.00 | 0.00 | 0.00 | 24 | 1014.8 |
| 20260505200527 | 81 | 135 | 1.0 | 3.0 | 0.00 | 0.00 | 0.00 | 22 | 1014.8 |
| 20260505200048 | 82 | 304 | 1.0 | 10.0 | 0.00 | 0.00 | 0.00 | 21 | 1014.8 |
| 20260505195524 | 82 | 129 | 1.0 | 10.0 | 0.00 | 0.00 | 0.00 | 22 | 1014.9 |
| 20260505195024 | 82 | 130 | 3.0 | 10.0 | 0.00 | 0.00 | 0.00 | 23 | 1014.8 |
| 20260505194546 | 82 | 156 | 0.0 | 7.0 | 0.00 | 0.00 | 0.00 | 23 | 1015.0 |
| 20260505194026 | 81 | 83 | 1.0 | 7.0 | 0.00 | 0.00 | 0.00 | 24 | 1015.1 |
| 20260505193525 | 81 | 98 | 1.0 | 7.0 | 0.00 | 0.00 | 0.00 | 21 | 1015.3 |
| 20260505193037 | 82 | 139 | 2.0 | 7.0 | 0.00 | 0.00 | 0.00 | 23 | 1015.4 |
| 20260505192528 | 82 | 129 | 1.0 | 4.0 | 0.00 | 0.00 | 0.00 | 22 | 1015.4 |
| 20260505192024 | 81 | 248 | 1.0 | 4.0 | 0.00 | 0.00 | 0.00 | 25 | 1015.4 |
| 20260505191537 | 82 | 72 | 0.0 | 5.0 | 0.00 | 0.00 | 0.00 | 21 | 1015.6 |
| 20260505191026 | 82 | 146 | 1.0 | 5.0 | 0.00 | 0.00 | 0.00 | 22 | 1015.7 |
| 20260505190524 | 81 | 131 | 0.0 | 8.0 | 0.00 | 0.00 | 0.00 | 27 | 1015.7 |
| 20260505190045 | 80 | 147 | 1.0 | 8.0 | 0.00 | 0.00 | 0.00 | 24 | 1015.9 |
| 20260505185524 | 81 | 174 | 2.0 | 11.0 | 0.00 | 0.00 | 0.00 | 23 | 1016.0 |
| 20260505185025 | 81 | 229 | 3.0 | 11.0 | 0.00 | 0.00 | 0.00 | 24 | 1016.1 |
| 20260505184540 | 82 | 123 | 1.0 | 4.0 | 0.00 | 0.00 | 0.00 | 23 | 1016.0 |
| 20260505184023 | 81 | 128 | 2.0 | 4.0 | 0.00 | 0.00 | 0.00 | 24 | 1016.1 |
| 20260505183523 | 81 | 0 | 0.0 | 7.0 | 0.00 | 0.00 | 0.00 | 24 | 1016.1 |
| 20260505183039 | 81 | 131 | 1.0 | 7.0 | 0.00 | 0.00 | 0.00 | 24 | 1016.2 |
| 20260505182524 | 80 | 269 | 2.0 | 7.0 | 0.00 | 0.00 | 0.00 | 27 | 1016.1 |
| 20260505182024 | 79 | 285 | 2.0 | 6.0 | 0.00 | 0.00 | 0.00 | 25 | 1016.0 |
| 20260505181540 | 81 | 279 | 1.0 | 6.0 | 0.00 | 0.00 | 0.00 | 22 | 1016.1 |
| 20260505181025 | 80 | 143 | 0.0 | 6.0 | 0.00 | 0.00 | 0.00 | 25 | 1016.1 |
| 20260505180525 | 80 | 282 | 1.0 | 6.0 | 0.00 | 0.00 | 0.00 | 25 | 1016.4 |
| 20260505180100 | 79 | 153 | 1.0 | 5.0 | 0.00 | 0.00 | 0.00 | 22 | 1016.4 |
| 20260505175530 | 80 | 269 | 1.0 | 5.0 | 0.00 | 0.00 | 0.00 | 23 | 1016.4 |
| 20260505175029 | 80 | 134 | 1.0 | 6.0 | 0.00 | 0.00 | 0.00 | 23 | 1016.5 |
| 20260505174557 | 80 | 242 | 2.0 | 6.0 | 0.00 | 0.00 | 0.00 | 22 | 1016.7 |
| 20260505174023 | 80 | 133 | 1.0 | 5.0 | 0.00 | 0.00 | 0.00 | 24 | 1016.8 |
| 20260505173526 | 80 | 129 | 1.0 | 7.0 | 0.00 | 0.00 | 0.00 | 23 | 1017.0 |
| 20260505173044 | 79 | 233 | 1.0 | 11.0 | 0.00 | 0.00 | 0.00 | 25 | 1016.9 |
| 20260505172522 | 79 | 134 | 2.0 | 11.0 | 0.00 | 0.00 | 0.00 | 27 | 1016.9 |
| 20260505172022 | 80 | 129 | 2.0 | 11.0 | 0.00 | 0.00 | 0.00 | 27 | 1016.8 |
| 20260505171538 | 81 | 197 | 1.0 | 5.0 | 0.00 | 0.00 | 0.00 | 24 | 1017.1 |
| 20260505171021 | 80 | 89 | 0.0 | 5.0 | 0.00 | 0.00 | 0.00 | 25 | 1017.1 |
| 20260505170522 | 80 | 125 | 1.0 | 6.0 | 0.00 | 0.00 | 0.00 | 25 | 1017.1 |
| 20260505170038 | 79 | 227 | 0.0 | 10.0 | 0.00 | 0.00 | 0.00 | 25 | 1017.1 |
| 20260505165522 | 79 | 301 | 1.0 | 10.0 | 0.00 | 0.00 | 0.00 | 25 | 1016.8 |
| 20260505165024 | 79 | 129 | 3.0 | 10.0 | 0.00 | 0.00 | 0.00 | 24 | 1016.8 |
| 20260505164535 | 79 | 129 | 2.0 | 6.0 | 0.00 | 0.00 | 0.00 | 25 | 1016.9 |
| 20260505164022 | 80 | 257 | 0.0 | 4.0 | 0.00 | 0.00 | 0.00 | 27 | 1016.9 |
| 20260505163521 | 79 | 141 | 1.0 | 4.0 | 0.00 | 0.00 | 0.00 | 27 | 1016.9 |
| 20260505163041 | 79 | 137 | 1.0 | 3.0 | 0.00 | 0.00 | 0.00 | 28 | 1016.8 |
| 20260505162522 | 78 | 117 | 1.0 | 6.0 | 0.00 | 0.00 | 0.00 | 29 | 1016.8 |
| 20260505162022 | 78 | 160 | 1.0 | 6.0 | 0.00 | 0.00 | 0.00 | 27 | 1017.0 |
| 20260505161539 | 78 | 139 | 2.0 | 5.0 | 0.00 | 0.00 | 0.00 | 28 | 1017.2 |
| 20260505161028 | 78 | 174 | 0.0 | 7.0 | 0.00 | 0.00 | 0.00 | 31 | 1017.2 |
| 20260505160523 | 77 | 98 | 2.0 | 7.0 | 0.00 | 0.00 | 0.00 | 31 | 1017.2 |
| 20260505153040 | 74 | 61 | 0.0 | 4.0 | 0.00 | 0.00 | 0.00 | 35 | 1017.6 |
| 20260505152522 | 73 | 286 | 1.0 | 3.0 | 0.00 | 0.00 | 0.00 | 37 | 1017.6 |
| 20260505152022 | 72 | 276 | 0.0 | 3.0 | 0.00 | 0.00 | 0.00 | 38 | 1017.7 |
| 20260505151535 | 72 | 300 | 1.0 | 4.0 | 0.00 | 0.00 | 0.00 | 38 | 1017.7 |
| 20260505151022 | 71 | 103 | 1.0 | 6.0 | 0.00 | 0.00 | 0.00 | 39 | 1017.6 |
| 20260505150524 | 71 | 134 | 2.0 | 6.0 | 0.00 | 0.00 | 0.00 | 39 | 1017.8 |
| 20260505140522 | 68 | 339 | 0.0 | 2.0 | 0.00 | 0.00 | 0.00 | 41 | 1017.4 |
| 20260505125024 | 62 | 0 | 0.0 | 1.0 | 0.00 | 0.00 | 0.00 | 50 | 1017.0 |
| 20260505124546 | 60 | 0 | 0.0 | 5.0 | 0.00 | 0.00 | 0.00 | 53 | 1016.9 |
| 20260505124025 | 58 | 95 | 1.0 | 5.0 | 0.00 | 0.00 | 0.00 | 55 | 1016.8 |
| 20260505123525 | 57 | 28 | 0.0 | 2.0 | 0.00 | 0.00 | 0.00 | 55 | 1017.2 |
| 20260505123041 | 57 | 0 | 1.0 | 2.0 | 0.00 | 0.00 | 0.00 | 56 | 1017.1 |
| 20260505122523 | 56 | 0 | 0.0 | 1.0 | 0.00 | 0.00 | 0.00 | 56 | 1017.1 |
| 20260505122026 | 55 | 0 | 0.0 | 1.0 | 0.00 | 0.00 | 0.00 | 57 | 1017.0 |
| 20260505121539 | 55 | 0 | 0.0 | 1.0 | 0.00 | 0.00 | 0.00 | 57 | 1016.9 |
| 20260505121026 | 54 | 0 | 0.0 | 1.0 | 0.00 | 0.00 | 0.00 | 58 | 1016.7 |
| 20260505120522 | 54 | 110 | 0.0 | 1.0 | 0.00 | 0.00 | 0.00 | 59 | 1016.7 |
| 20260505120041 | 54 | 0 | 0.0 | 0.0 | 0.00 | 0.00 | 0.00 | 59 | 1016.6 |
| 20260505115522 | 54 | 110 | 0.0 | 0.0 | 0.00 | 0.00 | 0.00 | 60 | 1016.7 |
| 20260505115028 | 53 | 0 | 0.0 | 0.0 | 0.00 | 0.00 | 0.00 | 60 | 1016.6 |
| 20260505114538 | 53 | 0 | 0.0 | 0.0 | 0.00 | 0.00 | 0.00 | 58 | 1016.4 |
| 20260505114025 | 52 | 0 | 0.0 | 1.0 | 0.00 | 0.00 | 0.00 | 58 | 1016.4 |
| 20260505113526 | 52 | 0 | 0.0 | 1.0 | 0.00 | 0.00 | 0.00 | 58 | 1016.4 |
| 20260505113035 | 52 | 0 | 0.0 | 0.0 | 0.00 | 0.00 | 0.00 | 58 | 1016.4 |
| 20260505112522 | 52 | 0 | 0.0 | 0.0 | 0.00 | 0.00 | 0.00 | 58 | 1016.3 |
| 20260505112022 | 52 | 0 | 0.0 | 2.0 | 0.00 | 0.00 | 0.00 | 58 | 1016.3 |
| 20260505111540 | 52 | 0 | 0.0 | 2.0 | 0.00 | 0.00 | 0.00 | 58 | 1016.3 |
| 20260505111027 | 52 | 0 | 0.0 | 2.0 | 0.00 | 0.00 | 0.00 | 57 | 1016.3 |
| 20260505110524 | 52 | 0 | 0.0 | 2.0 | 0.00 | 0.00 | 0.00 | 57 | 1016.3 |
| 20260505102025 | 47 | 0 | 0.0 | 0.0 | 0.00 | 0.00 | 0.00 | 68 | 1016.2 |
| 20260505101537 | 47 | 0 | 0.0 | 1.0 | 0.00 | 0.00 | 0.00 | 67 | 1016.2 |
| 20260505101022 | 47 | 104 | 0.0 | 1.0 | 0.00 | 0.00 | 0.00 | 67 | 1016.2 |
| 20260505100522 | 48 | 0 | 0.0 | 1.0 | 0.00 | 0.00 | 0.00 | 67 | 1016.1 |
| 20260505100035 | 48 | 0 | 0.0 | 0.0 | 0.00 | 0.00 | 0.00 | 66 | 1016.1 |
| 20260505095522 | 48 | 0 | 0.0 | 1.0 | 0.00 | 0.00 | 0.00 | 66 | 1016.1 |
| 20260505095024 | 48 | 0 | 0.0 | 1.0 | 0.00 | 0.00 | 0.00 | 66 | 1016.1 |
| 20260505094538 | 48 | 0 | 0.0 | 0.0 | 0.00 | 0.00 | 0.00 | 65 | 1016.1 |
| 20260505094022 | 49 | 0 | 0.0 | 0.0 | 0.00 | 0.00 | 0.00 | 65 | 1016.0 |
| 20260505093523 | 49 | 0 | 0.0 | 0.0 | 0.00 | 0.00 | 0.00 | 65 | 1016.0 |
| 20260505093040 | 49 | 0 | 0.0 | 1.0 | 0.00 | 0.00 | 0.00 | 65 | 1016.2 |
| 20260505092522 | 49 | 0 | 0.0 | 1.0 | 0.00 | 0.00 | 0.00 | 65 | 1016.2 |
| 20260505092022 | 49 | 104 | 0.0 | 1.0 | 0.00 | 0.00 | 0.00 | 64 | 1016.0 |
| 20260505091544 | 49 | 0 | 0.0 | 0.0 | 0.00 | 0.00 | 0.00 | 64 | 1016.0 |
| 20260505091022 | 50 | 0 | 0.0 | 0.0 | 0.00 | 0.00 | 0.00 | 64 | 1016.0 |
| 20260505090522 | 49 | 0 | 0.0 | 0.0 | 0.00 | 0.00 | 0.00 | 64 | 1015.9 |
| 20260505090038 | 49 | 0 | 0.0 | 1.0 | 0.00 | 0.00 | 0.00 | 64 | 1016.0 |
| 20260505085522 | 49 | 0 | 0.0 | 1.0 | 0.00 | 0.00 | 0.00 | 63 | 1015.9 |
| 20260505085025 | 50 | 0 | 0.0 | 0.0 | 0.00 | 0.00 | 0.00 | 63 | 1015.9 |
| 20260505084535 | 50 | 0 | 0.0 | 0.0 | 0.00 | 0.00 | 0.00 | 63 | 1015.8 |
| 20260505084023 | 50 | 0 | 0.0 | 1.0 | 0.00 | 0.00 | 0.00 | 62 | 1015.8 |
| 20260505083521 | 50 | 0 | 0.0 | 1.0 | 0.00 | 0.00 | 0.00 | 62 | 1016.0 |
| 20260505083040 | 50 | 0 | 0.0 | 1.0 | 0.00 | 0.00 | 0.00 | 62 | 1016.0 |
| 20260505082522 | 50 | 0 | 0.0 | 3.0 | 0.00 | 0.00 | 0.00 | 62 | 1015.9 |
| 20260505082023 | 50 | 0 | 0.0 | 3.0 | 0.00 | 0.00 | 0.00 | 63 | 1015.8 |
| 20260505081540 | 50 | 0 | 1.0 | 3.0 | 0.00 | 0.00 | 0.00 | 63 | 1015.9 |
| 20260505081023 | 50 | 94 | 1.0 | 2.0 | 0.00 | 0.00 | 0.00 | 62 | 1015.7 |
| 20260505080523 | 51 | 0 | 0.0 | 0.0 | 0.00 | 0.00 | 0.00 | 61 | 1015.4 |
| 20260505080038 | 51 | 0 | 0.0 | 0.0 | 0.00 | 0.00 | 0.00 | 61 | 1015.4 |
| 20260505075523 | 51 | 0 | 0.0 | 0.0 | 0.00 | 0.00 | 0.00 | 61 | 1015.4 |
| 20260505075024 | 51 | 0 | 0.0 | 0.0 | 0.00 | 0.00 | 0.00 | 61 | 1015.4 |
| 20260505074537 | 51 | 0 | 0.0 | 0.0 | 0.00 | 0.00 | 0.00 | 61 | 1015.3 |
| 20260505074022 | 52 | 0 | 0.0 | 0.0 | 0.00 | 0.00 | 0.00 | 60 | 1015.5 |
| 20260505073522 | 52 | 0 | 0.0 | 0.0 | 0.00 | 0.00 | 0.00 | 60 | 1015.4 |
| 20260505073037 | 52 | 0 | 0.0 | 0.0 | 0.00 | 0.00 | 0.00 | 59 | 1015.4 |
| 20260505072526 | 52 | 0 | 0.0 | 0.0 | 0.00 | 0.00 | 0.00 | 59 | 1015.3 |
| 20260505072024 | 52 | 0 | 0.0 | 0.0 | 0.00 | 0.00 | 0.00 | 59 | 1015.3 |
| 20260505071545 | 52 | 0 | 0.0 | 0.0 | 0.00 | 0.00 | 0.00 | 59 | 1015.5 |
| 20260505071022 | 52 | 0 | 0.0 | 0.0 | 0.00 | 0.00 | 0.00 | 59 | 1015.4 |
| 20260505070526 | 52 | 0 | 0.0 | 0.0 | 0.00 | 0.00 | 0.00 | 60 | 1015.5 |
| 20260505070047 | 52 | 0 | 0.0 | 0.0 | 0.00 | 0.00 | 0.00 | 60 | 1015.5 |
| 20260505065524 | 52 | 0 | 0.0 | 0.0 | 0.00 | 0.00 | 0.00 | 60 | 1015.6 |
| 20260505065024 | 52 | 0 | 0.0 | 0.0 | 0.00 | 0.00 | 0.00 | 59 | 1015.7 |
| 20260505064538 | 52 | 0 | 0.0 | 0.0 | 0.00 | 0.00 | 0.00 | 59 | 1015.7 |
| 20260505064022 | 52 | 0 | 0.0 | 0.0 | 0.00 | 0.00 | 0.00 | 59 | 1015.8 |
| 20260505063522 | 52 | 0 | 0.0 | 0.0 | 0.00 | 0.00 | 0.00 | 59 | 1015.9 |
| 20260505063048 | 53 | 0 | 0.0 | 0.0 | 0.00 | 0.00 | 0.00 | 59 | 1015.8 |
| 20260505062526 | 53 | 0 | 0.0 | 0.0 | 0.00 | 0.00 | 0.00 | 58 | 1015.9 |
| 20260505062022 | 53 | 0 | 0.0 | 0.0 | 0.00 | 0.00 | 0.00 | 58 | 1016.0 |
| 20260505061603 | 53 | 0 | 0.0 | 0.0 | 0.00 | 0.00 | 0.00 | 58 | 1015.9 |
| 20260505061025 | 53 | 0 | 0.0 | 0.0 | 0.00 | 0.00 | 0.00 | 57 | 1015.9 |
| 20260505060528 | 53 | 0 | 0.0 | 0.0 | 0.00 | 0.00 | 0.00 | 57 | 1016.0 |
| 20260505060036 | 53 | 0 | 0.0 | 0.0 | 0.00 | 0.00 | 0.00 | 57 | 1015.9 |
| 20260505055525 | 53 | 0 | 0.0 | 0.0 | 0.00 | 0.00 | 0.00 | 57 | 1016.0 |
| 20260505055023 | 53 | 0 | 0.0 | 0.0 | 0.00 | 0.00 | 0.00 | 57 | 1015.9 |
| 20260505054541 | 54 | 0 | 0.0 | 0.0 | 0.00 | 0.00 | 0.00 | 57 | 1015.9 |
| 20260505054024 | 54 | 0 | 0.0 | 0.0 | 0.00 | 0.00 | 0.00 | 57 | 1015.9 |
| 20260505053523 | 54 | 0 | 0.0 | 0.0 | 0.00 | 0.00 | 0.00 | 57 | 1016.0 |
| 20260505053043 | 54 | 0 | 0.0 | 0.0 | 0.00 | 0.00 | 0.00 | 55 | 1016.0 |
| 20260505052526 | 54 | 0 | 0.0 | 0.0 | 0.00 | 0.00 | 0.00 | 55 | 1016.0 |
| 20260505052023 | 55 | 0 | 0.0 | 0.0 | 0.00 | 0.00 | 0.00 | 56 | 1016.0 |
| 20260505051557 | 55 | 0 | 0.0 | 0.0 | 0.00 | 0.00 | 0.00 | 55 | 1016.0 |
| 20260505051023 | 55 | 0 | 0.0 | 0.0 | 0.00 | 0.00 | 0.00 | 54 | 1016.1 |
| 20260505050523 | 55 | 0 | 0.0 | 0.0 | 0.00 | 0.00 | 0.00 | 53 | 1016.1 |